Regional Weather Roundup
Issued by NWS

Home | Current Version | Previous Version | Graphics & Text | Print | Product List | Glossary Off
Versions: 1 2 3 4 5 6 7 8 9 10 11 12 13 14 15 16 17 18 19 20 21 22 23 24 25 26 27 28 29 30 31 32 33 34 35 36 37 38 39 40 41 42 43 44 45 46 47 48 49 50

000
ASUS43 KLOT 281104
RWRIL

ILLINOIS REGIONAL WEATHER ROUNDUP
NATIONAL WEATHER SERVICE CHICAGO/ROMEOVILLE IL
600 AM CDT SUN MAY 28 2017

NOTE: "FAIR" INDICATES FEW OR NO CLOUDS BELOW 12,000 FEET WITH NO
SIGNIFICANT WEATHER AND/OR OBSTRUCTIONS TO VISIBILITY.

* THESE STATIONS ARE NOT UNDER NWS QUALITY CONTROL. THEY ALSO MAY NOT
  REPORT WEATHER SUCH AS PRECIPITATION OR FOG.

ILZ001-002-007-009-015-016-024-281200-
NORTHWEST ILLINOIS

CITY           SKY/WX    TMP DP  RH WIND       PRES   REMARKS
MOLINE         CLOUDY    62  57  83 NW5       29.77R
STERLING*      CLOUDY    60  60 100 CALM      29.75R FOG
SAVANNA*       CLOUDY    61  57  88 N9        29.76R
$$

ILZ003-004-008-010-011-017-018-281200-
NORTH CENTRAL ILLINOIS

CITY           SKY/WX    TMP DP  RH WIND       PRES   REMARKS
ROCKFORD       CLOUDY    60  55  83 CALM      29.74S
FREEPORT*      CLOUDY    58  57  96 NW8       29.77R
ROCHELLE*      MOCLDY    56  56  97 CALM      29.74R FOG
DE KALB*       CLOUDY    57  56  96 S6        29.73F FOG
PERU*          MOCLDY    59  58  96 SE5       29.74S FOG
$$

ILZ005-006-012>014-019>023-281200-
NORTHEAST ILLINOIS

CITY           SKY/WX    TMP DP  RH WIND       PRES   REMARKS
CHICAGO-OHARE  CLOUDY    59  52  77 CALM      29.72F
CHICAGO-MIDWAY CLOUDY    59  55  87 E3        29.72F
AURORA         CLOUDY    57  55  93 CALM      29.73F FOG
LANSING*       CLOUDY    55  55 100 CALM      29.73S FOG
JOLIET*        FOG       56  56 100 CALM      29.73F VSB 3/4
WAUKEGAN       CLOUDY    53  53 100 CALM      29.72F
DUPAGE AIRPORT CLOUDY    56  56 100 CALM      29.72F
KANKAKEE*      CLOUDY    59  59  97 CALM      29.74S FOG
WHEELING       CLOUDY    55  54  96 CALM      29.73F
MORRIS*        CLOUDY    58  56  92 CALM      29.73S FOG
ROMEOVILLE*    CLOUDY    56  56 100 CALM      29.74S FOG
NORTHERLY ISL    N/A     56  52  86 N2          N/A
$$

LMZ740>746-281200-
SOUTHERN LAKE MICHIGAN

STATION/POSITION SKY/WX   TEMP    WIND        PRES    VSBY  WAVE
                          AIR SEA DIR/SP/G                  HT/PER
                          (F)     (DEG/KT/KT) (MB)    (MI)  (FT/S)
SOUTHERN BUOY              54 49  340/  4/  6 1007.6          0
WILMETTE HARBOR            52 54                N/A           0
HARRISON CRIB              56      10/  2/  2   N/A
BURNHAM HARBOR             56      CALM  /  3   N/A
CALUMET HARBOR             55     350/  2/  2 1006.5F
BURNS HARBOR               66     130/  9/ 13 1007.1F
MICHIGAN CITY              62     110/  6/  8   N/A
MICHIGAN CITY 6N           58 54  110/  2/  4   N/A           0
ST. JOSEPH                 60 58  150/  6/  8 1007.2F         0
$$

ILZ025>027-034>036-040-047-049-050-058-095>099-281200-
WEST-CENTRAL ILLINOIS

CITY           SKY/WX    TMP DP  RH WIND       PRES   REMARKS
QUINCY         FOG       62  62 100 NW10      29.76F VSB 1/4
GALESBURG*     PTCLDY    58  58 100 W10       29.75S FOG
MACOMB*        CLOUDY    61  60  99 NW7       29.77S FOG
JACKSONVILLE*  FOG       62  62  99 W3        29.73F VSB<1/4
PITTSFIELD*    CLOUDY    63  62  97 NW3       29.75F FOG
$$

ILZ028>032-037-038-041>044-048-051>054-059>061-281200-
CENTRAL ILLINOIS

CITY           SKY/WX    TMP DP  RH WIND       PRES   REMARKS
PONTIAC        CLOUDY    61  60  98 CALM      29.75R FOG
BLOOMINGTON    CLOUDY    60  59  96 NE6       29.75R FOG
DECATUR        MOCLDY    62  61  96 W3        29.73R
PEORIA         CLOUDY    62  62 100 CALM      29.74R FOG
LACON*         MOCLDY    58  58 100 CALM      29.73R FOG
LINCOLN*       MOCLDY    63  63 100 CALM      29.72S FOG
SPRINGFIELD    CLOUDY    61  60  97 NW3       29.72F
TAYLORVILLE    MOCLDY    62  61  98 SW6       29.72F
$$

ILZ033-039-045-046-055>057-062-063-281200-
EAST-CENTRAL ILLINOIS

CITY           SKY/WX    TMP DP  RH WIND       PRES   REMARKS
CHAMPAIGN      CLOUDY    62  60  93 E6        29.72R FOG
RANTOUL*       MOCLDY    64  62  96 NE3       29.72R FOG
MATTOON        CLOUDY    64  64 100 SW6       29.72R FOG
$$

ILZ079-100>102-281200-
SOUTHWEST ILLINOIS

CITY           SKY/WX    TMP DP  RH WIND       PRES   REMARKS
ALTON          MOCLDY    61  59  94 SW5       29.74F
BELLEVILLE     CLOUDY    62  60  93 W5        29.75F
CAHOKIA*       CLOUDY    63  60  90 SW3       29.75F
SPARTA*        CLOUDY    62  60  94 SW5       29.76S
$$

ILZ064>066-069>071-074>076-080>082-084>086-088>090-092>094-281200-
SOUTH-CENTRAL ILLINOIS

CITY           SKY/WX    TMP DP  RH WIND       PRES   REMARKS
CARBONDALE     CLOUDY    61  61 100 S8        29.79R
CAIRO*         CLOUDY    64  63  95 SW7       29.85R
EFFINGHAM*     MOCLDY    63  63 100 SW5       29.74S
MARION         CLOUDY    63  63 100 S7        29.80R
MT. VERNON       N/A     61  60  97 S3        29.74F
CENTRALIA*     MOCLDY    62  61  97 CALM      29.74F
SALEM*         MOCLDY    64  60  87 SW5       29.74F
METROPOLIS*    CLOUDY    64  62  95 S7        29.84R
$$

ILZ067-068-072-073-078-083-087-091-281200-
SOUTHEAST ILLINOIS

CITY           SKY/WX    TMP DP  RH WIND       PRES   REMARKS
LAWRENCEVILLE  CLOUDY    63  62  97 S3        29.75R
FLORA*         CLOUDY    65  60  86 S6        29.74S
FAIRFIELD*     CLOUDY    64  61  91 SW5       29.74F
HARRISBURG*    MOCLDY    63  62  95 S6        29.78S
ROBINSON*      CLOUDY    63  60  92 SW6       29.75R
CARMI*         CLOUDY    64  61  88 SW8       29.75F
$$

ABBREVIATIONS USED IN REMARKS
   TC - TEMPERATURE IN CELSIUS
  WCI - WIND CHILL INDEX
   HX - HEAT INDEX
  VSB - VISIBILITY
$$




USA.gov is the U.S. government's official web portal to all federal, state and local government web resources and services.